[[{"header":{"parameterUnit":"m.s-1","parameterCategory":1,"la1":30.2991,"la2":30.254,"lo1":-89.0895,"lo2":-89.0444,"dy":0.0017,"dx":0.0017,"nx":28,"ny":28,"refTime":"2025-05-29T21:00:00:Z","depth":0,"parameterNumber":2,"parameterNumberName":"U-component_of_WINDS"},"data":[0,0,0,0,0,0,0,0,0,0,0,0,0,0,0,0,0,0,0,0,0,0,0,0,0,0,0,0,0,0,0,0,0,0,0,0,0,0,0,0,0,0,0,0,0,0,0,0,0,0,0,0,0,0,0,0,0,0,0.8886,0.8886,0,0.8822,0.8821,0.882,0.8778,0.8778,0.8778,0.8777,0.8713,0.8712,0.871,0,0,0,0,0,0,0,0,0,0,0,0,0,0.8974,0.8973,0.8886,0.8885,0.8885,0.8822,0.8821,0.882,0.8778,0.8778,0.8778,0.8777,0.8714,0.8712,0.871,0,0,0,0,0,0,0,0,0,0,0,0,0,0.8926,0.8972,0.8886,0.8856,0.8853,0.8822,0.8821,0.882,0.8778,0.8778,0.8778,0.8777,0.8714,0.8712,0.871,0.8704,0,0,0.8703,0.8702,0,0,0,0,0,0,0,0,0.8928,0.8922,0.8861,0.8858,0.8854,0.8808,0.8828,0.8781,0.8778,0.8807,0.8777,0.8777,0.8745,0.874,0.8729,0.8701,0.8699,0.8703,0.8702,0.8701,0.87,0,0,0,0,0,0,0,0.8932,0.8925,0.8861,0.8861,0.8856,0.8846,0.8839,0.8819,0.8779,0.8804,0.8801,0.8794,0.8743,0.8731,0.8727,0.8698,0.8703,0.8701,0.87,0.8699,0.8661,0.8662,0,0,0,0,0,0,0.894,0.8928,0.8863,0.8859,0.8891,0.8845,0.8837,0.8823,0.8779,0.8772,0.8794,0.8792,0.8735,0.873,0.8725,0.8715,0.8701,0.8699,0.8697,0.8661,0.8661,0.8662,0,0,0,0,0,0,0.8942,0.8934,0.8865,0.8892,0.8883,0.8844,0.8829,0.8822,0.881,0.8771,0.8764,0.879,0.8735,0.8728,0.8709,0.8712,0.8698,0.8696,0.8661,0.8661,0.8662,0.8695,0,0,0,0,0,0,0.8945,0.8935,0.8933,0.8893,0.8882,0.8851,0.8829,0.8821,0.8806,0.8803,0.8765,0.8759,0.8734,0.8713,0.8707,0.8709,0.8694,0.866,0.8661,0.8662,0.8694,0.8697,0.87,0,0,0,0,0,0.8948,0.8945,0.8933,0.8925,0.8877,0.8851,0.8845,0.8816,0.8807,0.8804,0.8779,0.876,0.8713,0.8711,0.8705,0.8706,0.866,0.8661,0.8661,0.8693,0.8696,0.87,0,0,0,0,0,0,0.8988,0.894,0.8925,0.891,0.8885,0.8844,0.884,0.8821,0.8799,0.8796,0.8762,0.8754,0.8739,0.872,0.872,0.8698,0.8684,0.8684,0.871,0.8713,0.8716,0.8721,0.8692,0,0,0,0,0,0.8995,0.8977,0.8936,0.8926,0.8914,0.8879,0.8867,0.8846,0.8819,0.8809,0.8783,0.8758,0.8737,0.8724,0.8703,0.8691,0.8682,0.8688,0.8691,0.8694,0.8694,0.8685,0.8687,0.8664,0.8664,0.8664,0,0,0.9009,0.898,0.8972,0.8934,0.8912,0.8894,0.8871,0.8854,0.884,0.8806,0.8787,0.8767,0.8737,0.8721,0.8713,0.8705,0.8698,0.8695,0.8697,0.8695,0.8686,0.8688,0.869,0.8665,0.8665,0.8665,0,0,0.9026,0.9003,0.8992,0.897,0.8937,0.8913,0.8911,0.8873,0.8858,0.8837,0.8812,0.8795,0.8761,0.874,0.8725,0.8733,0.8715,0.8727,0.8742,0.8735,0.8736,0.8738,0.874,0.8742,0.8727,0.8727,0.8727,0,0.9048,0.902,0.8989,0.8972,0.8956,0.8924,0.8912,0.8893,0.8855,0.8845,0.8837,0.8792,0.8769,0.8748,0.875,0.8739,0.8735,0.8731,0.8739,0.874,0.8741,0.8743,0.8744,0.8729,0.8729,0.8729,0.8729,0,0.9049,0.903,0.9025,0.8988,0.8971,0.8958,0.8924,0.8911,0.8892,0.887,0.8849,0.8821,0.8793,0.8786,0.8768,0.8763,0.8759,0.8745,0.8731,0.8745,0.8746,0.8747,0.8732,0.8731,0.873,0.873,0,0,0.909,0.9035,0.9034,0.9016,0.8977,0.8962,0.8946,0.8918,0.8908,0.8883,0.8869,0.884,0.8826,0.8809,0.8788,0.8782,0.8789,0.8768,0.8767,0.8773,0.8781,0.8791,0.8793,0.8777,0.8777,0.8777,0.8783,0,0.9101,0.9071,0.9042,0.9022,0.9004,0.8973,0.8959,0.8934,0.8912,0.8894,0.887,0.885,0.8834,0.8823,0.8815,0.879,0.879,0.8789,0.8764,0.8763,0.8772,0.8793,0.8804,0.8812,0.8783,0.8784,0.8784,0,0.911,0.9085,0.9064,0.9025,0.9017,0.9005,0.8976,0.8959,0.893,0.8914,0.8895,0.8872,0.8854,0.8842,0.8817,0.8817,0.8805,0.8791,0.8791,0.8787,0.8774,0.879,0.8814,0.8815,0.8784,0.8784,0.8784,0,0.9142,0.9103,0.9085,0.9071,0.9026,0.9018,0.8999,0.8969,0.8954,0.8929,0.8919,0.8893,0.8878,0.8859,0.883,0.8824,0.8808,0.8794,0.8795,0.8796,0.8793,0.8794,0.8815,0.8786,0.8786,0.8786,0.8786,0,0.9157,0.9146,0.9099,0.9088,0.9073,0.9039,0.9026,0.9004,0.8978,0.8962,0.8933,0.8919,0.8882,0.8863,0.8841,0.8823,0.8817,0.8805,0.8799,0.8807,0.8809,0.8799,0.8798,0.8786,0.8786,0.8786,0.8786,0,0.9191,0.9159,0.9137,0.9095,0.9084,0.9076,0.904,0.9028,0.9004,0.8985,0.8978,0.8941,0.8918,0.8887,0.8854,0.8839,0.8825,0.8815,0.8834,0.8831,0.8834,0.8834,0.885,0.885,0.8821,0.8821,0.8821,0,0.9203,0.9193,0.915,0.9136,0.9118,0.9097,0.9081,0.9047,0.9032,0.8996,0.8989,0.8963,0.8941,0.8905,0.8876,0.885,0.884,0.8847,0.8836,0.8845,0.884,0.8841,0.884,0.885,0.8851,0.8851,0.8852,0,0.9228,0.9212,0.9189,0.9161,0.9142,0.9119,0.9094,0.9085,0.9046,0.903,0.9005,0.8987,0.8953,0.8928,0.8899,0.8879,0.8859,0.8855,0.8854,0.8863,0.8874,0.8868,0.8842,0.8855,0.8855,0.8854,0.8854,0.8854,0.9251,0.924,0.9207,0.9183,0.916,0.9137,0.9124,0.9098,0.9076,0.9045,0.9026,0.9002,0.8972,0.893,0.8912,0.8893,0.8885,0.8883,0.8883,0.8883,0.8886,0.8877,0.8887,0.8887,0.8887,0.8887,0.8887,0,0.9274,0.9251,0.9229,0.9194,0.9175,0.9156,0.9127,0.9112,0.9091,0.9064,0.9042,0.9014,0.8989,0.8957,0.893,0.8921,0.8911,0.8915,0.8915,0.8911,0.8895,0.8898,0.8923,0.8923,0.8923,0.8923,0.8923,0.8923,0.9284,0.9264,0.9245,0.9213,0.9191,0.9166,0.9151,0.913,0.9108,0.9077,0.9055,0.9034,0.9005,0.8975,0.8952,0.8943,0.8935,0.8942,0.893,0.8915,0.8912,0.8909,0.8912,0.894,0.894,0.8948,0.8948,0.8948]},{"header":{"parameterUnit":"m.s-1","parameterCategory":1,"la1":30.2991,"la2":30.254,"lo1":-89.0895,"lo2":-89.0444,"dy":0.0017,"dx":0.0017,"nx":28,"ny":28,"refTime":"2025-05-29T21:00:00:Z","depth":0,"parameterNumber":3,"parameterNumberName":"V-component_of_WINDS"},"data":[0,0,0,0,0,0,0,0,0,0,0,0,0,0,0,0,0,0,0,0,0,0,0,0,0,0,0,0,0,0,0,0,0,0,0,0,0,0,0,0,0,0,0,0,0,0,0,0,0,0,0,0,0,0,0,0,0,0,-3.4377,-3.4378,0,-3.4473,-3.4474,-3.4475,-3.4489,-3.4488,-3.4487,-3.4486,-3.4579,-3.4582,-3.4585,0,0,0,0,0,0,0,0,0,0,0,0,0,-3.4198,-3.4202,-3.4377,-3.4378,-3.4379,-3.4473,-3.4474,-3.4476,-3.4489,-3.4488,-3.4487,-3.4486,-3.4578,-3.4582,-3.4586,0,0,0,0,0,0,0,0,0,0,0,0,0,-3.4283,-3.4203,-3.4377,-3.4397,-3.44,-3.4473,-3.4474,-3.4476,-3.4489,-3.4488,-3.4486,-3.4485,-3.4577,-3.4581,-3.4586,-3.4643,0,0,-3.4601,-3.4603,0,0,0,0,0,0,0,0,-3.4278,-3.429,-3.4393,-3.4396,-3.4399,-3.4468,-3.4445,-3.4532,-3.4489,-3.4455,-3.4486,-3.4485,-3.4543,-3.455,-3.4571,-3.4647,-3.4651,-3.4602,-3.4605,-3.4607,-3.4608,0,0,0,0,0,0,0,-3.4273,-3.4286,-3.4415,-3.4394,-3.4398,-3.44,-3.441,-3.4462,-3.4505,-3.4458,-3.4459,-3.4471,-3.4544,-3.4566,-3.4573,-3.4653,-3.4602,-3.4606,-3.4609,-3.4611,-3.478,-3.4781,0,0,0,0,0,0,-3.4264,-3.4281,-3.4412,-3.4418,-3.4335,-3.4404,-3.4416,-3.4447,-3.4504,-3.4512,-3.4472,-3.4471,-3.4558,-3.4567,-3.4577,-3.4647,-3.4607,-3.4611,-3.4614,-3.4778,-3.478,-3.4782,0,0,0,0,0,0,-3.426,-3.4275,-3.4408,-3.435,-3.4367,-3.4409,-3.4443,-3.445,-3.4472,-3.4515,-3.4522,-3.4487,-3.4558,-3.457,-3.4627,-3.465,-3.4614,-3.4618,-3.4776,-3.4779,-3.4781,-3.4788,0,0,0,0,0,0,-3.4255,-3.4274,-3.4297,-3.435,-3.437,-3.4458,-3.4445,-3.4452,-3.4481,-3.4481,-3.4531,-3.4538,-3.4558,-3.4619,-3.4632,-3.4656,-3.4622,-3.4774,-3.4777,-3.478,-3.4786,-3.479,-3.4794,0,0,0,0,0,-3.4248,-3.4294,-3.4299,-3.4314,-3.44,-3.446,-3.4471,-3.4494,-3.4483,-3.4506,-3.4533,-3.4536,-3.4646,-3.4625,-3.4639,-3.4666,-3.4773,-3.4777,-3.478,-3.4784,-3.4789,-3.4794,0,0,0,0,0,0,-3.4241,-3.4302,-3.4307,-3.4372,-3.4411,-3.4462,-3.4492,-3.4499,-3.454,-3.4538,-3.4563,-3.4574,-3.463,-3.4653,-3.4629,-3.4723,-3.4708,-3.4714,-3.4706,-3.4712,-3.4716,-3.4709,-3.4626,0,0,0,0,0,-3.4248,-3.4293,-3.4342,-3.4395,-3.4414,-3.445,-3.4476,-3.4491,-3.4531,-3.4547,-3.4579,-3.4616,-3.4659,-3.4686,-3.4728,-3.4789,-3.4799,-3.4814,-3.4818,-3.4821,-3.4826,-3.4859,-3.4866,-3.4793,-3.4793,-3.4793,0,0,-3.4261,-3.4299,-3.4326,-3.4394,-3.4426,-3.4471,-3.4463,-3.451,-3.4543,-3.4554,-3.461,-3.4634,-3.4678,-3.4737,-3.4764,-3.4758,-3.4849,-3.4825,-3.4828,-3.4831,-3.4864,-3.4871,-3.4877,-3.4795,-3.4795,-3.4794,0,0,-3.4308,-3.4342,-3.4389,-3.4422,-3.447,-3.4494,-3.4505,-3.4555,-3.4572,-3.463,-3.4638,-3.4676,-3.4749,-3.478,-3.4805,-3.4862,-3.4866,-3.4875,-3.4896,-3.4928,-3.4934,-3.4939,-3.496,-3.4967,-3.488,-3.488,-3.488,0,-3.4317,-3.4387,-3.4412,-3.446,-3.4489,-3.4502,-3.4549,-3.4579,-3.4638,-3.4657,-3.4649,-3.4741,-3.4771,-3.4837,-3.4851,-3.4871,-3.4884,-3.487,-3.4932,-3.4937,-3.4942,-3.4962,-3.4969,-3.4881,-3.488,-3.488,-3.488,0,-3.4396,-3.4444,-3.4476,-3.4535,-3.4567,-3.4614,-3.4645,-3.4674,-3.4686,-3.4709,-3.4766,-3.4803,-3.4852,-3.4868,-3.4879,-3.4936,-3.4931,-3.4927,-3.4912,-3.495,-3.4968,-3.4976,-3.4882,-3.4881,-3.4881,-3.4881,0,0,-3.4442,-3.4515,-3.4526,-3.4553,-3.4607,-3.4644,-3.469,-3.474,-3.4765,-3.4804,-3.4843,-3.4904,-3.4901,-3.493,-3.4944,-3.4972,-3.5015,-3.4965,-3.4966,-3.4973,-3.5079,-3.5081,-3.509,-3.5017,-3.5019,-3.502,-3.5075,0,-3.4495,-3.4582,-3.4606,-3.4677,-3.4721,-3.4734,-3.4774,-3.4811,-3.4833,-3.4872,-3.4896,-3.4939,-3.4932,-3.4949,-3.4977,-3.5003,-3.5036,-3.5,-3.5052,-3.5054,-3.5042,-3.51,-3.5103,-3.5153,-3.5082,-3.5084,-3.5085,0,-3.457,-3.4613,-3.469,-3.4739,-3.4758,-3.4794,-3.4841,-3.4879,-3.4919,-3.4934,-3.4965,-3.4977,-3.5024,-3.5006,-3.507,-3.5045,-3.5068,-3.5083,-3.5086,-3.5092,-3.5072,-3.5107,-3.517,-3.5177,-3.5096,-3.5095,-3.5095,0,-3.4596,-3.4673,-3.4729,-3.4751,-3.4809,-3.4834,-3.4859,-3.4899,-3.4927,-3.4968,-3.4986,-3.5031,-3.5055,-3.5088,-3.511,-3.5096,-3.5173,-3.5157,-3.5185,-3.5184,-3.5201,-3.5199,-3.5268,-3.5215,-3.5215,-3.5214,-3.5214,0,-3.4653,-3.47,-3.4742,-3.4776,-3.4828,-3.4854,-3.4903,-3.4928,-3.4964,-3.5002,-3.5014,-3.5049,-3.5076,-3.5114,-3.5132,-3.5182,-3.5193,-3.5204,-3.5209,-3.5204,-3.5202,-3.5219,-3.5216,-3.5216,-3.5216,-3.5216,-3.5215,0,-3.4691,-3.4722,-3.4783,-3.4834,-3.4847,-3.4883,-3.4925,-3.4958,-3.498,-3.5028,-3.5041,-3.5076,-3.5121,-3.5147,-3.5203,-3.5215,-3.5271,-3.5273,-3.5258,-3.526,-3.5286,-3.5283,-3.5368,-3.538,-3.5319,-3.5319,-3.532,0,-3.4726,-3.4763,-3.4817,-3.4845,-3.487,-3.4914,-3.4943,-3.4969,-3.4999,-3.5048,-3.5074,-3.5121,-3.516,-3.5231,-3.526,-3.5303,-3.5307,-3.5333,-3.5313,-3.5307,-3.5307,-3.5305,-3.5308,-3.5337,-3.5337,-3.5338,-3.5338,0,-3.4785,-3.4798,-3.4841,-3.4889,-3.4924,-3.4963,-3.5001,-3.5022,-3.5053,-3.5086,-3.5133,-3.5164,-3.5222,-3.5267,-3.5313,-3.5336,-3.5342,-3.5344,-3.5353,-3.5348,-3.5338,-3.5344,-3.5268,-3.5342,-3.5342,-3.5342,-3.5341,-3.5341,-3.4823,-3.4856,-3.4899,-3.4946,-3.4978,-3.5013,-3.5047,-3.5074,-3.5115,-3.5166,-3.5178,-3.5228,-3.5266,-3.5328,-3.5352,-3.539,-3.5385,-3.5398,-3.5401,-3.5404,-3.5405,-3.5332,-3.5398,-3.5398,-3.5398,-3.5398,-3.5398,0,-3.4882,-3.4911,-3.4954,-3.5008,-3.5044,-3.5049,-3.5091,-3.512,-3.5165,-3.5201,-3.5239,-3.5293,-3.5337,-3.537,-3.5415,-3.5439,-3.5442,-3.5449,-3.5448,-3.5453,-3.5407,-3.5395,-3.5446,-3.5446,-3.5446,-3.5446,-3.5446,-3.5445,-3.4918,-3.4974,-3.4992,-3.5062,-3.509,-3.5141,-3.5164,-3.5196,-3.5225,-3.5286,-3.5323,-3.5345,-3.5379,-3.5426,-3.5466,-3.5474,-3.549,-3.5497,-3.5505,-3.5461,-3.5456,-3.5451,-3.544,-3.55,-3.55,-3.5548,-3.5549,-3.5549]}]]